Simultaneous Nadir Overpasses (SNOs) Predictions

Prediction of SNOs between FY3D and METOP-C Satellite Orbit:

Table of predicted SNOs for the next 14.0 days since TLE Epoch: 8/6/2022
Index Date (FY3D) Time (FY3D) Lat,Lon (FY3D) SZA (FY3D ) Date (METOP-C) Time (METOP-C) Lat,Lon (METOP-C) SZA (METOP-C ) Distance(km) Time Diff (sec)
1 08/13/2022 23:12:16 74.79,-174.74 60.43 08/13/2022 23:13:22 74.77,-171.79 60.31 85.98 66
2 08/14/2022 00:02:58 -74.66, -7.06 119.71 08/14/2022 00:04:07 -74.58, -4.98 119.86 62.17 69
3 08/14/2022 00:53:40 74.44, 160.85 60.07 08/14/2022 00:54:51 74.41, 161.90 59.99 31.63 71
4 08/14/2022 01:44:22 -74.31, -31.50 120.07 08/14/2022 01:45:35 -74.27, -31.13 120.13 11.85 73
5 08/14/2022 02:35:07 74.23, 136.02 59.86 08/14/2022 02:36:16 74.24, 136.13 59.86 3.62 69
6 08/14/2022 03:25:51 -74.20, -56.59 120.17 08/14/2022 03:26:58 -74.20, -56.65 120.18 2.00 67
7 08/14/2022 04:16:38 74.21, 110.68 59.86 08/14/2022 04:17:38 74.22, 110.73 59.86 1.79 60
8 08/14/2022 05:07:22 -74.18, -81.93 120.17 08/14/2022 05:08:20 -74.18, -82.05 120.17 3.70 58
9 08/14/2022 05:58:09 74.20, 85.34 59.87 08/14/2022 05:59:00 74.20, 85.34 59.86 0.10 51
10 08/14/2022 06:48:54 -74.21,-107.39 120.11 08/14/2022 06:49:41 -74.20,-107.32 120.13 2.47 47
11 08/14/2022 07:39:40 74.18, 60.00 59.87 08/14/2022 07:40:22 74.18, 59.94 59.86 1.86 42
12 08/14/2022 08:30:25 -74.20,-132.73 120.10 08/14/2022 08:31:03 -74.18,-132.71 120.13 1.97 38
13 08/14/2022 09:21:11 74.17, 34.66 59.88 08/14/2022 09:21:44 74.15, 34.55 59.86 3.68 33
14 08/14/2022 10:11:56 -74.18,-158.07 120.10 08/14/2022 10:12:25 -74.16,-158.11 120.12 2.88 29
15 08/14/2022 11:02:43 74.20, 9.19 59.94 08/14/2022 11:03:05 74.18, 9.27 59.91 3.39 22
16 08/14/2022 11:53:27 -74.17, 176.59 120.09 08/14/2022 11:53:46 -74.19, 176.62 120.08 2.29 19
17 08/14/2022 12:44:14 74.19, -16.15 59.94 08/14/2022 12:44:27 74.16, -16.12 59.91 3.11 13
18 08/14/2022 13:34:58 -74.15, 151.25 120.09 08/14/2022 13:35:08 -74.17, 151.22 120.08 1.61 10
19 08/14/2022 14:25:45 74.17, -41.49 59.95 08/14/2022 14:25:48 74.19, -41.39 59.96 3.43 3
20 08/14/2022 15:16:29 -74.14, 125.91 120.08 08/14/2022 15:16:30 -74.14, 125.83 120.08 2.55 1
21 08/14/2022 16:07:16 74.16, -66.83 59.95 08/14/2022 16:07:10 74.16, -66.79 59.96 1.65 6
22 08/14/2022 16:58:01 -74.17, 100.45 120.03 08/14/2022 16:57:51 -74.17, 100.56 120.03 3.37 10
23 08/14/2022 17:48:47 74.14, -92.17 59.96 08/14/2022 17:48:32 74.14, -92.18 59.96 0.47 15
24 08/14/2022 18:39:32 -74.15, 75.11 120.02 08/14/2022 18:39:13 -74.15, 75.16 120.03 1.85 19
25 08/14/2022 19:30:18 74.12,-117.51 59.96 08/14/2022 19:29:54 74.12,-117.58 59.96 2.07 24
26 08/14/2022 20:21:03 -74.14, 49.77 120.02 08/14/2022 20:20:35 -74.13, 49.77 120.03 1.43 28
27 08/14/2022 21:11:49 74.11,-142.85 59.97 08/14/2022 21:11:16 74.10,-142.97 59.96 3.86 33
28 08/14/2022 22:02:34 -74.12, 24.43 120.01 08/14/2022 22:01:57 -74.10, 24.37 120.02 2.69 37
29 08/14/2022 22:53:21 74.14,-168.32 60.02 08/14/2022 22:52:37 74.13,-168.24 60.01 2.88 44
30 08/14/2022 23:44:05 -74.11, -0.91 120.01 08/14/2022 23:43:18 -74.13, -0.90 119.98 2.63 47
31 08/15/2022 00:34:52 74.13, 166.34 60.03 08/15/2022 00:33:59 74.10, 166.36 60.01 2.67 53
32 08/15/2022 01:25:36 -74.09, -26.25 120.00 08/15/2022 01:24:40 -74.11, -26.29 119.98 2.23 56
33 08/15/2022 02:16:23 74.11, 141.00 60.03 08/15/2022 02:15:20 74.13, 141.09 60.06 3.37 63
34 08/15/2022 03:07:07 -74.08, -51.59 120.00 08/15/2022 03:06:02 -74.09, -51.69 119.97 3.09 65
35 08/15/2022 03:57:54 74.10, 115.66 60.04 08/15/2022 03:56:42 74.11, 115.69 60.06 1.69 72
36 08/15/2022 04:48:38 -74.06, -76.94 119.99 08/15/2022 04:47:24 -74.06, -77.08 119.97 4.53 74
37 08/15/2022 05:39:20 73.83, 90.93 59.78 08/15/2022 05:38:09 73.84, 89.70 59.84 38.18 71
38 08/15/2022 06:30:02 -73.70,-101.44 120.35 08/15/2022 06:28:52 -73.75,-103.19 120.24 54.93 70
39 08/15/2022 07:20:44 73.47, 66.41 59.42 08/15/2022 07:19:38 73.47, 63.50 59.52 92.33 66



Historial Predications of SNOs between FY3D and METOP-C
